Location: NCO
(38.4404°N, 77.1340°W)
Time: 08:53:27
(UTC-04:00)

Tiangong 2 - Visible Passes

Search period start: 22 July 2018 00:00
Search period end: 01 August 2018 00:00
Orbit: 386 x 394 km, 42.8° (Epoch: 22 July)

Date Brightness Start Highest point End Pass type
(mag) Time Alt. Az. Time Alt. Az. Time Alt. Az.
22 Jul 1.2 21:19:43 10° WNW 21:22:55 72° NNE 21:25:28 15° ESE visible
22 Jul 3.8 22:57:03 10° W 22:57:47 14° WSW 22:57:47 14° WSW visible
23 Jul 1.9 21:59:00 10° W 22:01:59 37° SSW 22:02:33 34° S visible
24 Jul 1.2 21:01:09 10° WNW 21:04:20 66° SSW 21:07:21 11° ESE visible
25 Jul 3.0 21:40:49 10° W 21:43:13 20° SW 21:44:32 16° S visible
